Voltar ao catálogo

LICHUANHONG

AtivoCiênciaSSO
NORAD 69542·PAYLOAD·🇨🇳 China
Este nome de satélite ainda não foi confirmado por fontes oficiais.

Lançado Jun 15, 2026 de Jiuquan Satellite Launch Center

Loading…

Próximas Passagens (próximas 24 horas)

TLE

AtualizadoSource: Space-Track

Época: Sep 14, 2026, 11:09 UTC

1 69542U 26134E   26257.46486534  .00003845  00000-0  24323-3 0  9991
2 69542  97.6975 327.9958 0016934 327.3125  32.7054 15.09507127 13776

Acompanhe LICHUANHONG em tempo real com AllMySat

Download on the App Store